Hourly Data Report for October 03, 2019

SAINT JOHN A
NEW BRUNSWICK
Current Station Operator: NAVCAN

45°18'58.000" N
65°53'24.000" W
108.80 m
8104901
71609
YSJ

Download Data

Hourly Data (October 2019)
Hourly Data Report for October 3, 2019
TIME
LST
Temp Definition
°C
Dew Point Definition
°C
Rel Hum Definition
%
Precip. Amount Definition
mm

Wind Dir Definition
10's deg

Wind Spd Definition
km/h
Visibility Definition
km
Stn Press Definition
kPa
Hmdx Definition


Wind Chill Definition


Weather Definition


00:00 5.5 1.3 74   35 19 24.1 100.30     LegendNANA
01:00 4.0 1.0 81   34 17 24.1 100.40     LegendNANA
02:00 3.0 0.1 81   32 13 24.1 100.44     Cloudy
03:00 3.6 1.0 83   32 15 24.1 100.48     LegendNANA
04:00 3.6 0.2 78   32 17 24.1 100.50     LegendNANA
05:00 2.1 -1.1 79   32 11 24.1 100.55     Mostly Cloudy
06:00 1.5 -1.0 83   30 8 24.1 100.59     LegendNANA
07:00 2.0 -0.7 82   32 12 24.1 100.67     LegendNANA
08:00 4.2 -0.6 71   32 19 24.1 100.71     Mainly Clear
09:00 5.9 -0.7 63   32 24 24.1 100.75     LegendNANA
10:00 7.2 -1.7 53   34 18 24.1 100.78     LegendNANA
11:00 8.4 -1.8 49   36 17 24.1 100.77     Mainly Clear
12:00 9.2 -2.5 43   33 21 24.1 100.74     LegendNANA
13:00 10.7 -1.1 44   34 12 24.1 100.65     LegendNANA
14:00 10.3 -2.1 42   34 13 24.1 100.62     Mostly Cloudy
15:00 10.5 -1.1 45   3 7 24.1 100.64     LegendNANA
16:00 11.2 -1.3 42   36 13 24.1 100.59     LegendNANA
17:00 10.3 -1.0 45   2 6 24.1 100.58     Mostly Cloudy
18:00 8.3 0.8 59   27 7 24.1 100.58     LegendNANA
19:00 7.6 2.1 68   25 10 24.1 100.57     LegendNANA
20:00 6.4 2.9 78   20 7 24.1 100.64     Mostly Cloudy
21:00 6.1 3.7 85   36 3 24.1 100.57     LegendNANA
22:00 4.5 3.5 93   6 8 24.1 100.52     LegendNANA
23:00 5.5 4.4 93   2 7 24.1 100.46     Cloudy

Notes on Data Quality.

Legend

  • E = Estimated
  • M = Missing
  • NA = Not Available*
  • [empty] = Indicates an unobserved value
Date modified: